EWG68N LOWW-EDDH

Flight info

Callsign EWG68N
Flight time 1h 7m
Altitude 38000
Route LANUX DCT LALUK DCT MILGU DCT SOGMA M748 BUMIL/N0427F240 M748 RARUP RARUP6A
Aircraft A319/M-SDE3FGHIRWY/LB1

Departure

Time 2026-05-07 07:05
Airport Vienna International Airport (LOWW)

Arrival

Time 2026-05-07 08:12
Airport Hamburg Helmut Schmidt Airport (EDDH)
Time Latitude Longitude Altitude Speed Heading
2026-05-07 06:47 48.12017 16.55612 623 ft 0 kts 116°
2026-05-07 06:57 48.12019 16.55606 625 ft 3 kts 116°
2026-05-07 06:57 48.12032 16.55570 620 ft 4 kts 124°
2026-05-07 06:57 48.12049 16.55543 620 ft 4 kts 165°
2026-05-07 06:58 48.12061 16.55542 622 ft 0 kts 205°
2026-05-07 07:00 48.12048 16.55533 623 ft 7 kts 205°
2026-05-07 07:01 48.11977 16.55481 615 ft 14 kts 206°
2026-05-07 07:01 48.11876 16.55431 611 ft 16 kts 188°
2026-05-07 07:01 48.11792 16.55485 614 ft 15 kts 114°
2026-05-07 07:01 48.11741 16.55640 619 ft 19 kts 116°
2026-05-07 07:02 48.11676 16.55841 613 ft 22 kts 116°
2026-05-07 07:02 48.11605 16.56057 613 ft 24 kts 116°
2026-05-07 07:02 48.11528 16.56292 612 ft 26 kts 116°
2026-05-07 07:02 48.11446 16.56547 623 ft 28 kts 116°
2026-05-07 07:03 48.11358 16.56815 612 ft 30 kts 116°
2026-05-07 07:03 48.11266 16.57100 620 ft 31 kts 116°
2026-05-07 07:03 48.11169 16.57394 613 ft 29 kts 116°
2026-05-07 07:03 48.11096 16.57619 623 ft 16 kts 116°
2026-05-07 07:04 48.11015 16.57627 617 ft 14 kts 205°
2026-05-07 07:04 48.10930 16.57558 615 ft 12 kts 221°
2026-05-07 07:04 48.10941 16.57453 618 ft 20 kts 297°
2026-05-07 07:04 48.11091 16.56993 615 ft 79 kts 296°
2026-05-07 07:05 48.11414 16.56002 612 ft 132 kts 296°
2026-05-07 07:05 48.11872 16.54590 888 ft 158 kts 296°
2026-05-07 07:05 48.12192 16.53017 1613 ft 163 kts 269°
2026-05-07 07:05 48.11982 16.51293 2159 ft 178 kts 262°
2026-05-07 07:06 48.11759 16.49355 2546 ft 200 kts 263°
2026-05-07 07:06 48.11584 16.47160 3001 ft 225 kts 273°
2026-05-07 07:06 48.11834 16.44738 3707 ft 243 kts 280°
2026-05-07 07:06 48.12118 16.42190 4684 ft 252 kts 279°
2026-05-07 07:07 48.12403 16.39517 5496 ft 266 kts 278°
2026-05-07 07:07 48.12689 16.36751 6464 ft 272 kts 277°
2026-05-07 07:07 48.12978 16.33920 7400 ft 277 kts 276°
2026-05-07 07:07 48.13273 16.31063 8409 ft 279 kts 276°
2026-05-07 07:08 48.13573 16.28181 9424 ft 281 kts 276°
2026-05-07 07:08 48.13912 16.25284 10370 ft 285 kts 281°
2026-05-07 07:08 48.14655 16.22494 11169 ft 298 kts 295°
2026-05-07 07:08 48.15981 16.19922 11470 ft 329 kts 313°
2026-05-07 07:09 48.17957 16.17914 11728 ft 359 kts 330°
2026-05-07 07:09 48.20278 16.16227 11891 ft 382 kts 331°
2026-05-07 07:09 48.22720 16.14447 12287 ft 395 kts 331°
2026-05-07 07:09 48.25207 16.12627 12948 ft 400 kts 330°
2026-05-07 07:10 48.27719 16.10777 13661 ft 404 kts 330°
2026-05-07 07:10 48.30250 16.08904 14287 ft 408 kts 330°
2026-05-07 07:10 48.32805 16.07003 14910 ft 412 kts 330°
2026-05-07 07:10 48.35391 16.05075 15479 ft 417 kts 330°
2026-05-07 07:11 48.38005 16.03127 16081 ft 422 kts 330°
2026-05-07 07:11 48.40650 16.01152 16669 ft 426 kts 329°
2026-05-07 07:11 48.43322 15.99149 17230 ft 431 kts 329°
2026-05-07 07:11 48.45983 15.97151 17774 ft 435 kts 329°
2026-05-07 07:12 48.48709 15.95103 18312 ft 439 kts 329°
2026-05-07 07:12 48.51457 15.93042 18765 ft 443 kts 329°
2026-05-07 07:12 48.54230 15.90959 19221 ft 447 kts 328°
2026-05-07 07:12 48.57025 15.88853 19684 ft 451 kts 328°
2026-05-07 07:13 48.59813 15.86650 20140 ft 453 kts 326°
2026-05-07 07:13 48.62579 15.84335 20578 ft 456 kts 325°
2026-05-07 07:13 48.65339 15.81941 21034 ft 459 kts 324°
2026-05-07 07:13 48.68101 15.79510 21521 ft 460 kts 324°
2026-05-07 07:14 48.70870 15.77069 21965 ft 462 kts 324°
2026-05-07 07:14 48.73658 15.74631 22385 ft 464 kts 324°
2026-05-07 07:14 48.76467 15.72198 22785 ft 467 kts 324°
2026-05-07 07:14 48.79296 15.69763 23191 ft 469 kts 324°
2026-05-07 07:15 48.82148 15.67316 23561 ft 472 kts 324°
2026-05-07 07:15 48.85014 15.64859 23877 ft 474 kts 324°
2026-05-07 07:15 48.87896 15.62380 24198 ft 477 kts 324°
2026-05-07 07:15 48.90787 15.59886 24510 ft 479 kts 324°
2026-05-07 07:16 48.93691 15.57371 24814 ft 481 kts 324°
2026-05-07 07:16 48.96605 15.54838 25148 ft 484 kts 324°
2026-05-07 07:16 48.99537 15.52282 25386 ft 488 kts 324°
2026-05-07 07:16 49.02493 15.49706 25628 ft 491 kts 324°
2026-05-07 07:17 49.05422 15.47156 25921 ft 493 kts 324°
2026-05-07 07:17 49.08407 15.44552 26199 ft 495 kts 324°
2026-05-07 07:17 49.11413 15.41926 26467 ft 497 kts 324°
2026-05-07 07:17 49.14422 15.39296 26735 ft 500 kts 324°
2026-05-07 07:18 49.17438 15.36658 27102 ft 499 kts 324°
2026-05-07 07:18 49.20449 15.34019 27485 ft 499 kts 324°
2026-05-07 07:18 49.23457 15.31377 27872 ft 499 kts 323°
2026-05-07 07:18 49.26468 15.28727 28284 ft 498 kts 323°
2026-05-07 07:19 49.29471 15.26084 28741 ft 498 kts 323°
2026-05-07 07:19 49.32473 15.23438 29160 ft 497 kts 323°
2026-05-07 07:19 49.35472 15.20794 29587 ft 497 kts 323°
2026-05-07 07:19 49.38469 15.18147 30031 ft 496 kts 323°
2026-05-07 07:20 49.41456 15.15503 30415 ft 496 kts 323°
2026-05-07 07:20 49.43435 15.13749 30687 ft 495 kts 323°
2026-05-07 07:20 49.46406 15.11106 31130 ft 493 kts 323°
2026-05-07 07:20 49.49367 15.08469 31567 ft 491 kts 323°
2026-05-07 07:21 49.52324 15.05837 32013 ft 489 kts 323°
2026-05-07 07:21 49.55265 15.03218 32468 ft 488 kts 323°
2026-05-07 07:21 49.58198 15.00603 32905 ft 486 kts 323°
2026-05-07 07:21 49.61116 14.97996 33404 ft 485 kts 323°
2026-05-07 07:22 49.64031 14.95388 33831 ft 484 kts 323°
2026-05-07 07:22 49.66940 14.92778 34203 ft 483 kts 323°
2026-05-07 07:22 49.69840 14.90170 34572 ft 482 kts 323°
2026-05-07 07:22 49.72738 14.87559 34949 ft 481 kts 323°
2026-05-07 07:23 49.75624 14.84958 35331 ft 480 kts 324°
2026-05-07 07:23 49.78506 14.82359 35703 ft 479 kts 324°
2026-05-07 07:23 49.81376 14.79762 36058 ft 478 kts 324°
2026-05-07 07:23 49.84246 14.77161 36404 ft 477 kts 324°
2026-05-07 07:24 49.87109 14.74570 36752 ft 476 kts 324°
2026-05-07 07:24 49.89964 14.71980 37082 ft 475 kts 324°
2026-05-07 07:24 49.92820 14.69382 37427 ft 474 kts 324°
2026-05-07 07:24 49.95663 14.66794 37807 ft 473 kts 325°
2026-05-07 07:25 50.01300 14.61672 37915 ft 466 kts 325°
2026-05-07 07:25 50.04091 14.59128 37916 ft 464 kts 325°
2026-05-07 07:26 50.09056 14.54576 37924 ft 464 kts 325°
2026-05-07 07:26 50.14616 14.49472 37923 ft 464 kts 325°
2026-05-07 07:27 50.20179 14.44362 37927 ft 464 kts 325°
2026-05-07 07:27 50.25735 14.39238 37918 ft 464 kts 325°
2026-05-07 07:28 50.31286 14.34104 37943 ft 463 kts 326°
2026-05-07 07:28 50.36836 14.28970 37927 ft 463 kts 326°
2026-05-07 07:29 50.42375 14.23824 37912 ft 462 kts 325°
2026-05-07 07:29 50.47903 14.18663 37903 ft 462 kts 325°
2026-05-07 07:30 50.53436 14.13488 37888 ft 463 kts 325°
2026-05-07 07:30 50.58971 14.08292 37898 ft 463 kts 325°
2026-05-07 07:31 50.64506 14.03096 37885 ft 464 kts 326°
2026-05-07 07:31 50.70010 13.97915 37881 ft 464 kts 326°
2026-05-07 07:32 50.75555 13.92665 37876 ft 465 kts 325°
2026-05-07 07:32 50.81094 13.87377 37872 ft 466 kts 324°
2026-05-07 07:33 50.86491 13.81718 37883 ft 465 kts 321°
2026-05-07 07:33 50.91767 13.75790 37895 ft 465 kts 321°
2026-05-07 07:34 50.97069 13.69873 37901 ft 466 kts 321°
2026-05-07 07:34 51.02404 13.64016 37920 ft 466 kts 322°
2026-05-07 07:35 51.07747 13.58170 37925 ft 466 kts 322°
2026-05-07 07:35 51.13084 13.52310 37928 ft 466 kts 322°
2026-05-07 07:36 51.18406 13.46419 37928 ft 466 kts 321°
2026-05-07 07:36 51.23719 13.40514 37947 ft 465 kts 322°
2026-05-07 07:37 51.29034 13.34602 37935 ft 465 kts 322°
2026-05-07 07:37 51.34341 13.28683 37944 ft 465 kts 322°
2026-05-07 07:38 51.39636 13.22763 37946 ft 464 kts 322°
2026-05-07 07:38 51.44926 13.16828 37949 ft 464 kts 322°
2026-05-07 07:39 51.50210 13.10876 37947 ft 464 kts 322°
2026-05-07 07:39 51.55457 13.04951 37961 ft 464 kts 322°
2026-05-07 07:40 51.60787 12.99074 37963 ft 465 kts 324°
2026-05-07 07:40 51.66258 12.93501 37956 ft 466 kts 325°
2026-05-07 07:41 51.71757 12.87966 37957 ft 466 kts 325°
2026-05-07 07:41 51.77225 12.82345 37956 ft 466 kts 324°
2026-05-07 07:42 51.82666 12.76657 37961 ft 466 kts 324°
2026-05-07 07:42 51.88106 12.70951 37977 ft 466 kts 324°
2026-05-07 07:43 51.93565 12.65252 37973 ft 467 kts 324°
2026-05-07 07:43 51.99019 12.59547 37968 ft 467 kts 324°
2026-05-07 07:44 52.04462 12.53815 37968 ft 467 kts 324°
2026-05-07 07:44 52.09907 12.48060 37968 ft 467 kts 324°
2026-05-07 07:45 52.15350 12.42293 37986 ft 467 kts 324°
2026-05-07 07:45 52.20791 12.36515 37995 ft 466 kts 324°
2026-05-07 07:46 52.26218 12.30739 37989 ft 465 kts 324°
2026-05-07 07:46 52.31640 12.24947 37986 ft 465 kts 324°
2026-05-07 07:47 52.37055 12.19152 37989 ft 465 kts 324°
2026-05-07 07:47 52.42466 12.13343 37992 ft 465 kts 324°
2026-05-07 07:48 52.47872 12.07518 37995 ft 465 kts 324°
2026-05-07 07:48 52.53218 12.01726 37425 ft 462 kts 324°
2026-05-07 07:48 52.55901 11.98823 36839 ft 462 kts 324°
2026-05-07 07:49 52.58583 11.95921 36232 ft 461 kts 324°
2026-05-07 07:49 52.61263 11.93015 35592 ft 461 kts 324°
2026-05-07 07:49 52.63936 11.90097 34950 ft 461 kts 323°
2026-05-07 07:49 52.66548 11.87049 34311 ft 460 kts 320°
2026-05-07 07:50 52.69097 11.83864 33597 ft 459 kts 319°
2026-05-07 07:50 52.71606 11.80599 32756 ft 460 kts 318°
2026-05-07 07:50 52.74111 11.77297 31860 ft 462 kts 318°
2026-05-07 07:50 52.76635 11.73982 30929 ft 465 kts 319°
2026-05-07 07:51 52.79190 11.70667 29957 ft 469 kts 319°
2026-05-07 07:51 52.81766 11.67367 29140 ft 466 kts 320°
2026-05-07 07:51 52.84321 11.64122 28503 ft 459 kts 321°
2026-05-07 07:51 52.86830 11.60945 27920 ft 450 kts 321°
2026-05-07 07:52 52.89141 11.57525 27273 ft 441 kts 309°
2026-05-07 07:52 52.90835 11.53372 26612 ft 432 kts 295°
2026-05-07 07:52 52.92176 11.48945 25912 ft 428 kts 294°
2026-05-07 07:52 52.93492 11.44548 25266 ft 424 kts 294°
2026-05-07 07:53 52.94788 11.40186 24623 ft 420 kts 294°
2026-05-07 07:53 52.96067 11.35857 23991 ft 416 kts 294°
2026-05-07 07:53 52.97331 11.31570 23318 ft 412 kts 294°
2026-05-07 07:53 52.98582 11.27321 22602 ft 408 kts 294°
2026-05-07 07:54 52.99806 11.23168 21911 ft 404 kts 294°
2026-05-07 07:54 53.01034 11.19000 21278 ft 400 kts 294°
2026-05-07 07:54 53.02250 11.14875 20653 ft 396 kts 295°
2026-05-07 07:54 53.03458 11.10779 20047 ft 393 kts 295°
2026-05-07 07:55 53.04653 11.06724 19488 ft 389 kts 294°
2026-05-07 07:55 53.05834 11.02701 18941 ft 385 kts 295°
2026-05-07 07:55 53.07003 10.98709 18338 ft 383 kts 295°
2026-05-07 07:55 53.08161 10.94746 17685 ft 379 kts 295°
2026-05-07 07:56 53.09306 10.90822 17038 ft 376 kts 295°
2026-05-07 07:56 53.10438 10.86931 16390 ft 372 kts 295°
2026-05-07 07:56 53.11559 10.83065 15752 ft 368 kts 294°
2026-05-07 07:56 53.12664 10.79250 15162 ft 364 kts 294°
2026-05-07 07:57 53.13756 10.75477 14534 ft 360 kts 295°
2026-05-07 07:57 53.14843 10.71728 13888 ft 358 kts 295°
2026-05-07 07:57 53.15921 10.68007 13213 ft 355 kts 295°
2026-05-07 07:57 53.16988 10.64313 12526 ft 352 kts 296°
2026-05-07 07:58 53.18045 10.60643 11854 ft 350 kts 296°
2026-05-07 07:58 53.19093 10.56998 11187 ft 348 kts 296°
2026-05-07 07:58 53.20135 10.53367 10532 ft 346 kts 297°
2026-05-07 07:58 53.21152 10.49813 10124 ft 339 kts 297°
2026-05-07 07:59 53.22140 10.46348 9999 ft 323 kts 297°
2026-05-07 07:59 53.23078 10.43059 10011 ft 305 kts 297°
2026-05-07 07:59 53.23965 10.39937 9919 ft 293 kts 296°
2026-05-07 07:59 53.24833 10.36887 9590 ft 289 kts 297°
2026-05-07 08:00 53.25696 10.33860 9217 ft 288 kts 297°
2026-05-07 08:00 53.26555 10.30843 8828 ft 287 kts 298°
2026-05-07 08:00 53.27414 10.27831 8446 ft 286 kts 297°
2026-05-07 08:00 53.28265 10.24833 8089 ft 284 kts 297°
2026-05-07 08:01 53.29107 10.21857 7723 ft 283 kts 297°
2026-05-07 08:01 53.29947 10.18888 7373 ft 281 kts 297°
2026-05-07 08:01 53.30781 10.15940 7035 ft 280 kts 297°
2026-05-07 08:01 53.31612 10.12998 6685 ft 279 kts 297°
2026-05-07 08:02 53.32436 10.10075 6339 ft 278 kts 298°
2026-05-07 08:02 53.33259 10.07157 6018 ft 275 kts 297°
2026-05-07 08:02 53.34053 10.04324 5968 ft 262 kts 297°
2026-05-07 08:02 53.34805 10.01626 5951 ft 249 kts 298°
2026-05-07 08:03 53.35515 9.99045 5733 ft 245 kts 297°
2026-05-07 08:03 53.36222 9.96457 5368 ft 244 kts 297°
2026-05-07 08:03 53.36927 9.93884 4973 ft 243 kts 297°
2026-05-07 08:03 53.37633 9.91315 4571 ft 242 kts 297°
2026-05-07 08:04 53.38336 9.88750 4141 ft 242 kts 297°
2026-05-07 08:04 53.39049 9.86198 3737 ft 241 kts 301°
2026-05-07 08:04 53.40109 9.84103 3310 ft 235 kts 322°
2026-05-07 08:04 53.41340 9.82317 3001 ft 231 kts 324°
2026-05-07 08:05 53.42522 9.80648 2968 ft 213 kts 324°
2026-05-07 08:05 53.43614 9.79097 3014 ft 200 kts 324°
2026-05-07 08:05 53.44751 9.77864 3005 ft 190 kts 345°
2026-05-07 08:05 53.45999 9.77196 3009 ft 187 kts 349°
2026-05-07 08:06 53.47249 9.76581 3011 ft 187 kts 349°
2026-05-07 08:06 53.48498 9.75986 3008 ft 186 kts 352°
2026-05-07 08:06 53.49767 9.75831 3009 ft 181 kts
2026-05-07 08:06 53.50977 9.76100 3001 ft 167 kts 18°
2026-05-07 08:07 53.51996 9.76857 3000 ft 156 kts 39°
2026-05-07 08:07 53.52753 9.78115 2904 ft 152 kts 53°
2026-05-07 08:07 53.53424 9.79459 2738 ft 148 kts 53°
2026-05-07 08:07 53.54075 9.80765 2546 ft 144 kts 53°
2026-05-07 08:08 53.54500 9.81617 2427 ft 143 kts 53°
2026-05-07 08:08 53.55135 9.82892 2231 ft 141 kts 54°
2026-05-07 08:08 53.55759 9.84146 2036 ft 137 kts 53°
2026-05-07 08:08 53.56542 9.85721 1794 ft 127 kts 53°
2026-05-07 08:09 53.56998 9.86637 1651 ft 119 kts 54°
2026-05-07 08:09 53.57424 9.87493 1518 ft 117 kts 53°
2026-05-07 08:09 53.57944 9.88541 1356 ft 116 kts 53°
2026-05-07 08:09 53.58305 9.89269 1245 ft 115 kts 54°
2026-05-07 08:10 53.58818 9.90303 1072 ft 116 kts 53°
2026-05-07 08:10 53.59336 9.91347 907 ft 116 kts 51°
2026-05-07 08:10 53.59850 9.92383 749 ft 115 kts 52°
2026-05-07 08:10 53.60359 9.93410 590 ft 114 kts 51°
2026-05-07 08:11 53.60866 9.94425 442 ft 112 kts 50°
2026-05-07 08:11 53.61366 9.95434 271 ft 114 kts 52°
2026-05-07 08:11 53.61871 9.96458 113 ft 113 kts 51°
2026-05-07 08:11 53.62357 9.97443 41 ft 98 kts 50°
2026-05-07 08:12 53.62714 9.98170 43 ft 65 kts 50°
2026-05-07 08:12 53.62992 9.98730 45 ft 63 kts 51°
2026-05-07 08:12 53.63234 9.99223 47 ft 34 kts 50°
2026-05-07 08:12 53.63287 9.99560 48 ft 22 kts 100°
2026-05-07 08:13 53.63224 9.99760 49 ft 22 kts 153°
2026-05-07 08:13 53.63079 9.99885 47 ft 25 kts 153°
2026-05-07 08:13 53.62945 10.00000 49 ft 21 kts 153°
2026-05-07 08:13 53.62850 10.00067 46 ft 15 kts 156°
2026-05-07 08:14 53.62763 10.00143 49 ft 13 kts 153°
2026-05-07 08:14 53.62747 10.00191 49 ft 5 kts 67°
2026-05-07 08:14 53.62764 10.00245 47 ft 4 kts 62°
2026-05-07 08:14 53.62772 10.00272 48 ft 1 kts 62°
2026-05-07 08:15 53.62773 10.00274 49 ft 0 kts 62°